Location: Skymont Scout Reservation
(35.4344°N, 85.8742°W)
Time: 10:43:51
(UTC-06:00)

ISS - All Passes

Search period start: 04 March 2015 00:00
Search period end: 14 March 2015 01:00
Orbit: 395 x 408 km, 51.6° (Epoch: 04 March)

Date Brightness Start Highest point End Pass type
(mag) Time Alt. Az. Time Alt. Az. Time Alt. Az.
04 Mar - 07:14:19 10° SSW 07:17:26 49° SE 07:20:34 10° ENE daylight
04 Mar - 08:51:50 10° WNW 08:54:03 17° NNW 08:56:14 10° NNE daylight
04 Mar - 13:44:46 10° NNW 13:47:04 18° NNE 13:49:26 10° ENE daylight
04 Mar - 15:20:33 10° WNW 15:23:38 43° SW 15:26:42 10° SSE daylight
05 Mar - 06:21:35 10° S 06:24:07 22° SE 06:26:43 10° ENE daylight
05 Mar - 07:57:33 10° W 08:00:24 28° NW 08:03:15 10° NNE daylight
05 Mar - 12:52:05 10° N 12:53:15 12° NNE 12:54:29 10° NE daylight
05 Mar - 14:26:53 10° NW 14:30:07 80° NE 14:33:19 10° SE daylight
06 Mar - 05:30:15 10° SE 05:30:22 10° SE 05:30:38 10° ESE visible
06 Mar - 07:03:12 10° WSW 07:06:23 59° NW 07:09:34 10° NE daylight
06 Mar - 13:32:59 10° NNW 13:35:59 36° NE 13:39:00 10° ESE daylight
06 Mar - 15:09:56 10° W 15:12:08 17° SW 15:14:16 10° S daylight
07 Mar - 06:08:50 10° SW 06:11:58 57° SE 06:15:09 10° NE daylight
07 Mar - 07:46:30 10° WNW 07:48:33 16° NNW 07:50:34 10° N daylight
07 Mar - 12:38:51 10° NNW 12:41:17 20° NNE 12:43:44 10° E daylight
07 Mar - 14:14:40 10° WNW 14:17:42 37° SW 14:20:40 10° SSE daylight
08 Mar - 06:14:32 10° S 06:17:10 24° SE 06:19:52 10° ENE visible
08 Mar - 07:50:36 10° W 07:53:24 26° NW 07:56:11 10° NNE daylight
08 Mar - 12:44:37 10° N 12:45:58 12° NNE 12:47:22 10° NE daylight
08 Mar - 14:19:28 10° NW 14:22:41 87° NE 14:25:54 10° SE daylight
09 Mar - 05:21:15 10° SE 05:21:57 11° SE 05:22:48 10° ESE visible
09 Mar - 06:54:43 10° WSW 06:57:53 55° NW 07:01:03 10° NE daylight
09 Mar - 13:24:05 10° NNW 13:27:06 37° NE 13:30:08 10° ESE daylight
09 Mar - 15:01:02 10° W 15:03:08 16° SW 15:05:09 10° SSW daylight
10 Mar - 05:58:51 10° SW 06:01:59 59° SE 06:05:10 10° NE visible
10 Mar - 07:36:27 10° WNW 07:38:29 15° NNW 07:40:28 10° N daylight
10 Mar - 12:28:28 10° NNW 12:30:54 20° NNE 12:33:22 10° E daylight
10 Mar - 14:04:13 10° WNW 14:07:13 37° SW 14:10:12 10° SSE daylight
11 Mar - 05:03:07 10° S 05:05:43 23° SE 05:08:22 10° ENE visible
11 Mar - 06:39:03 10° W 06:41:50 27° NW 06:44:38 10° NNE daylight
11 Mar - 11:32:49 10° N 11:34:06 12° NNE 11:35:28 10° NE daylight
11 Mar - 13:07:31 10° NW 13:10:44 84° NE 13:13:57 10° SE daylight
12 Mar - 05:41:42 10° WSW 05:44:51 58° NW 05:48:01 10° NE visible
12 Mar - 12:10:41 10° NNW 12:13:40 35° NE 12:16:40 10° ESE daylight
12 Mar - 13:47:24 10° W 13:49:37 17° SW 13:51:46 10° S daylight
13 Mar - 04:44:24 10° SSW 04:47:30 52° SE 04:50:37 10° ENE visible
13 Mar - 06:21:44 10° WNW 06:23:51 16° NNW 06:25:56 10° NNE visible
13 Mar - 11:13:38 10° NNW 11:15:58 19° NNE 11:18:21 10° ENE daylight
13 Mar - 12:49:10 10° WNW 12:52:14 41° SW 12:55:16 10° SSE daylight
